Princess Beatrix Arpt, Aruba

12:54 PM AST on March 25, 2017 (GMT -0400)
Princess Beatrix Arpt

Weather History for 78982 - March, 2013

Change the Weather History Date:

Friday, March 8, 2013

  Actual Average Record
Temperature  
Mean Temperature 83 °F -  
Max Temperature 88 °F 86 °F - ()
Min Temperature 78 °F 76 °F - ()
Cooling Degree Days 18    
Growing Degree Days 33 (Base 50)    
Moisture  
Dew Point 72 °F    
Average Humidity 72    
Maximum Humidity 83    
Minimum Humidity 56    
Precipitation  
Precipitation 0.00 in - - ()
Sea Level Pressure  
Sea Level Pressure 29.90 in    
Wind  
Wind Speed 18 mph ()    
Max Wind Speed 26 mph    
Max Gust Speed 37 mph    
Visibility 7.6 miles    
Events      
T = Trace of Precipitation, MM = Missing Value Source: Averaged Metar Reports

Daily Weather History Graph

Daily Weather History Graph

Search for Another Location

Airport or City:

Trip Planner

Search our weather history database for the weather conditions in past years. The results will help you decide how hot, cold, wet, or windy it might be!

Date:

Astronomy

Mar. 08, 2013 Rise Set
Actual Time 6:51 AM AST 6:50 PM AST
Civil Twilight 6:30 AM AST 7:11 PM AST
Nautical Twilight 6:05 AM AST 7:35 PM AST
Astronomical Twilight 5:41 AM AST 8:00 PM AST
Moon 4:05 AM AST (3/8) 4:05 PM AST (3/8)
Length of Visible Light 12h 40m
Length of Day
11h 58m
Waning Crescent, 12% of the Moon is Illuminated
Mar 8
Waning Crescent
Mar 11
New
Mar 19
First Quarter
Mar 27
Full
Apr 3
Last Quarter

Hourly Weather History & Observations

Time (AST) Temp. Heat Index Dew Point Humidity Pressure Visibility Wind Dir Wind Speed Gust Speed Precip Events Conditions
12:00 AM 80.6 °F 85.4 °F 73.4 °F 79% 29.92 in 6.2 mi ENE 20.7 mph - N/A   Scattered Clouds
1:00 AM 78.8 °F - 73.4 °F 83% 29.89 in 6.2 mi East 19.6 mph - N/A   Scattered Clouds
2:00 AM 79 °F - 73 °F 76% 29.90 in 12 mi ENE 17.3 mph - -   Haze
2:00 AM 78.8 °F - 73.4 °F 83% 29.89 in 6.2 mi ENE 17.3 mph - N/A   Scattered Clouds
3:00 AM 80.6 °F 85.4 °F 73.4 °F 79% 29.86 in 6.2 mi East 18.4 mph - N/A   Scattered Clouds
4:00 AM 78.8 °F - 73.4 °F 83% 29.86 in 6.2 mi ENE 15.0 mph - N/A   Partly Cloudy
5:00 AM 80 °F - 73 °F 73% 29.88 in 12 mi East 15.0 mph - -   Scattered Clouds
5:00 AM 80.6 °F 85.4 °F 73.4 °F 79% 10.11 in 6.2 mi East 15.0 mph - N/A   Partly Cloudy
6:00 AM 80.6 °F 84.6 °F 71.6 °F 74% 29.89 in 6.2 mi East 18.4 mph - N/A   Partly Cloudy
7:00 AM 78.8 °F - 71.6 °F 78% 29.92 in 6.2 mi East 16.1 mph - N/A   Scattered Clouds
8:00 AM 81 °F - 71 °F 66% 29.94 in 12 mi East 20.7 mph - -   Haze
8:00 AM 80.6 °F 84.6 °F 71.6 °F 74% 29.92 in 6.2 mi East 20.7 mph - N/A   Scattered Clouds
9:00 AM 82.4 °F 87.2 °F 71.6 °F 70% 29.95 in 6.2 mi East 25.3 mph - N/A   Partly Cloudy
10:00 AM 84.2 °F 89.6 °F 71.6 °F 66% 29.95 in 6.2 mi East 24.2 mph - N/A   Scattered Clouds
11:00 AM 86 °F - 72 °F 56% 29.96 in 12 mi East 23.0 mph - -   Haze
11:00 AM 86.0 °F 93.4 °F 73.4 °F 66% 29.95 in 6.2 mi East 23.0 mph - N/A   Partly Cloudy
12:00 PM 87.8 °F 95.6 °F 73.4 °F 62% 29.92 in 6.2 mi ENE 24.2 mph - N/A   Partly Cloudy
1:00 PM 86.0 °F 93.4 °F 73.4 °F 66% 29.89 in 6.2 mi ENE 26.5 mph - N/A   Scattered Clouds
2:00 PM 85 °F - 73 °F 60% 29.90 in 12 mi ENE 24.2 mph - -  
2:00 PM 86.0 °F 93.4 °F 73.4 °F 66% 29.89 in 6.2 mi ENE 24.2 mph 36.8 mph N/A   Scattered Clouds
3:00 PM 86.0 °F 93.4 °F 73.4 °F 66% 29.86 in 6.2 mi ENE 24.2 mph - N/A   Partly Cloudy
4:00 PM 86.0 °F 93.4 °F 73.4 °F 66% 29.86 in 6.2 mi ENE 23.0 mph - N/A   Partly Cloudy
5:00 PM 84 °F - 72 °F 61% 29.86 in 12 mi ENE 25.3 mph - -   Haze
5:00 PM 84.2 °F 90.9 °F 73.4 °F 70% 29.86 in 6.2 mi ENE 25.3 mph - N/A   Partly Cloudy
6:00 PM 82.4 °F 88.2 °F 73.4 °F 74% 29.86 in 6.2 mi ENE 19.6 mph 32.2 mph N/A   Partly Cloudy
7:00 PM 80.6 °F 84.6 °F 71.6 °F 74% 29.86 in 6.2 mi ENE 20.7 mph - N/A   Partly Cloudy
8:00 PM 80 °F - 71 °F 67% 29.88 in 12 mi East 21.9 mph - -   Haze
8:00 PM 80.6 °F 84.6 °F 71.6 °F 74% 29.86 in 6.2 mi East 21.9 mph - N/A   Partly Cloudy
9:00 PM 80.6 °F 84.6 °F 71.6 °F 74% 29.89 in 6.2 mi East 21.9 mph - N/A   Partly Cloudy
10:00 PM 78.8 °F - 71.6 °F 78% 29.89 in 6.2 mi ENE 23.0 mph - N/A   Partly Cloudy
11:00 PM 79 °F - 71 °F 71% 29.91 in 12 mi East 18.4 mph - -   Haze
11:00 PM 78.8 °F - 71.6 °F 78% 29.89 in 6.2 mi East 18.4 mph - N/A   Partly Cloudy